Satellite-Ground Cal/Val Region Overpasses Predictions

Prediction of Satellite NPP Overpassing Cal/Val Region: PacNW

Region Location: (Latitude: 10.00, Longitude: 139.50) to (Latitude: 22.70, Longitude: 165.60).

Table of predicted overpasses for the next 14.0 days since TLE Epoch: 3/8/2013
Interval Starting Time Starting Location Ending Time Ending Location
1 03/08/2013 15:48:06 ( 22.67, 147.52) 03/08/2013 15:51:41 ( 10.06, 144.51)
2 03/09/2013 02:57:11 ( 10.04, 155.03) 03/09/2013 03:00:46 ( 22.66, 152.02)
3 03/09/2013 15:29:05 ( 22.66, 152.27) 03/09/2013 15:32:40 ( 10.04, 149.27)
4 03/10/2013 02:38:11 ( 10.05, 159.78) 03/10/2013 02:41:46 ( 22.67, 156.77)
5 03/10/2013 15:10:05 ( 22.65, 157.02) 03/10/2013 15:13:40 ( 10.03, 154.02)
6 03/11/2013 02:19:09 ( 10.01, 164.55) 03/11/2013 02:22:45 ( 22.69, 161.53)
7 03/11/2013 14:51:03 ( 22.69, 161.79) 03/11/2013 14:54:39 ( 10.01, 158.77)
8 03/12/2013 03:41:39 ( 10.02, 143.92) 03/12/2013 03:45:14 ( 22.65, 140.92)
9 03/12/2013 14:33:09 ( 18.80, 165.59) 03/12/2013 14:35:38 ( 10.06, 163.53)
10 03/12/2013 16:13:33 ( 22.67, 141.16) 03/12/2013 16:15:29 ( 15.87, 139.51)
11 03/13/2013 03:22:38 ( 10.04, 148.67) 03/13/2013 03:26:13 ( 22.66, 145.67)
12 03/13/2013 15:54:32 ( 22.66, 145.92) 03/13/2013 15:58:07 ( 10.04, 142.91)
13 03/14/2013 03:03:37 ( 10.00, 153.44) 03/14/2013 03:07:13 ( 22.68, 150.42)
14 03/14/2013 15:35:31 ( 22.70, 150.68) 03/14/2013 15:39:07 ( 10.02, 147.66)
15 03/15/2013 02:44:37 ( 10.02, 158.19) 03/15/2013 02:48:12 ( 22.64, 155.18)
16 03/15/2013 15:16:30 ( 22.68, 155.43) 03/15/2013 15:20:06 ( 10.00, 152.41)
17 03/16/2013 02:25:36 ( 10.04, 162.94) 03/16/2013 02:29:11 ( 22.66, 159.93)
18 03/16/2013 14:57:30 ( 22.66, 160.18) 03/16/2013 15:01:05 ( 10.04, 157.18)
19 03/17/2013 02:09:08 ( 18.99, 165.59) 03/17/2013 02:10:11 ( 22.68, 164.68)
20 03/17/2013 03:48:05 ( 10.00, 142.33) 03/17/2013 03:51:27 ( 21.86, 139.51)
21 03/17/2013 14:38:28 ( 22.70, 164.95) 03/17/2013 14:42:04 ( 10.02, 161.93)
22 03/17/2013 16:19:58 ( 22.70, 139.57) 03/17/2013 16:20:02 ( 22.46, 139.51)
23 03/18/2013 03:29:04 ( 10.02, 147.08) 03/18/2013 03:32:39 ( 22.65, 144.07)
24 03/18/2013 16:00:58 ( 22.68, 144.32) 03/18/2013 16:04:34 ( 10.00, 141.30)
25 03/19/2013 03:10:04 ( 10.05, 151.83) 03/19/2013 03:13:39 ( 22.67, 148.82)
26 03/19/2013 15:41:57 ( 22.66, 149.07) 03/19/2013 15:45:32 ( 10.04, 146.06)
27 03/20/2013 02:51:02 ( 10.01, 156.59) 03/20/2013 02:54:38 ( 22.69, 153.57)
28 03/20/2013 15:22:56 ( 22.69, 153.83) 03/20/2013 15:26:32 ( 10.02, 150.81)
29 03/21/2013 02:32:02 ( 10.03, 161.34) 03/21/2013 02:35:37 ( 22.66, 158.33)
30 03/21/2013 15:03:55 ( 22.67, 158.58) 03/21/2013 15:07:30 ( 10.05, 155.58)
31 03/22/2013 02:13:38 ( 12.23, 165.59) 03/22/2013 02:16:36 ( 22.68, 163.08)


NCC Satellite Cal/Val Overpasses Prediction Service
